Station 44025 (LLNR 830) - LONG ISLAND - 30 NM South of Islip, NY Image indicating link to RSS feed of recent meteorological observations for station 44025


Conditions at 44025 as of
(11:00 am EDT)
1500 GMT on 07/23/2024:
     

Click on the graph icon in the table below to see a time series plot of the last five days of that observation.

5-day plot - Wind Direction Wind Direction (WDIR):WSW ( 240 deg true )
5-day plot - Wind Speed Wind Speed (WSPD): 11.7 kts
5-day plot - Wind Gust Wind Gust (GST): 13.6 kts
5-day plot - Atmospheric Pressure Atmospheric Pressure (PRES):30.01 in
5-day plot - Pressure Tendency Pressure Tendency (PTDY):+0.02 in ( Rising )
5-day plot - Air Temperature Air Temperature (ATMP): 74.8 °F
5-day plot - Water Temperature Water Temperature (WTMP): 75.0 °F
5-day plot - Dew Point Dew Point (DEWP): 73.0 °F
5-day plot - Wind Speed at 10 Meters Wind Speed at 10 meters (WSPD10M): 11.7 kts
5-day plot - Wind Speed at 20 Meters Wind Speed at 20 meters (WSPD20M): 11.7 kts
5-day plot -  Wind Speed, Wind Gust and Atmospheric Pressure Combined plot of Wind Speed, Gust, and Air Pressure
Supplemental Measurements
Highest 1-minute Wind Speed
Time (EDT)5-day plot - 1-Minute Wind Speed WSPD 5-day plot - 1-Minute Wind Direction WDIR
10:54 am 11.7 kts-
Previous observations
TIME
(EDT)
5-day plot - Wind Direction
WDIR
 
5-day plot - Wind Speed
WSPD
kts
5-day plot - Wind Gust
GST
kts
5-day plot - Wave Height
WVHT
ft
5-day plot - Dominant Wave Period
DPD
sec
5-day plot - Average Wave Period
APD
sec
5-day plot - Mean Wave Direction
MWD
 
5-day plot - Atmospheric Pressure
PRES
in
5-day plot - Pressure Tendency
PTDY
in
5-day plot - Air Temperature
ATMP
°F
5-day plot - Water Temperature
WTMP
°F
5-day plot - Dew Point
DEWP
°F
5-day plot - Salinity
SAL
psu
5-day plot - Visibility
VIS
nmi
5-day plot - Tide (above MLLW)
TIDE
ft
2024-07-23 10:50 amWSW 11.7 13.6 3.6 65.0 S30.01- 74.8 75.0 73.2---
2024-07-23 10:40 amWSW 13.6 15.5----30.01- 74.8 75.0 73.4---
2024-07-23 10:30 amWSW 11.7 15.5----30.01- 74.8 75.0 73.6---
2024-07-23 10:20 amWSW 11.7 15.5 3.3 65.1SSE30.01- 74.8 75.0 73.6---
2024-07-23 10:10 am SW 11.7 13.6 3.3-5.1SSE30.00- 74.8 74.8 73.6---
2024-07-23 10:00 am SW 9.7 13.6----30.00+0.03 74.7 74.8 73.6---
2024-07-23 09:50 am SW 9.7 13.6 3.3 65.4SSE30.00- 74.7 74.8 73.8---
2024-07-23 09:40 amSSW 7.8 11.7 3.3-5.4SSE30.00- 74.7 74.8 73.8---
2024-07-23 09:30 amSSW 7.8 9.7----29.99- 74.7 74.8 73.8---
2024-07-23 09:20 amSSW 5.8 7.8 3.3 65.1SSE29.99- 74.5 74.8 73.4---
2024-07-23 09:10 am SW 5.8 7.8 3.3-5.1SSE29.99- 74.5 74.8 73.2---
2024-07-23 09:00 amSSW 5.8 7.8----29.99+0.04 74.5 74.7 73.0---
2024-07-23 08:50 amSSW 7.8 9.7 3.3 65.2SSE29.99- 74.3 74.7 73.2---
2024-07-23 08:40 amSSW 7.8 7.8 3.3-5.2SSE29.99- 74.5 74.7 73.4---
2024-07-23 08:30 amSSW 7.8 7.8----30.00- 74.3 74.7 73.2---
2024-07-23 08:20 amSSW 5.8 9.7 3.3 65.2SSE29.99- 74.5 74.7 73.4---
2024-07-23 08:10 amSSW 1.9 3.9 3.3-5.2SSE29.99- 74.5 74.7 73.2---
2024-07-23 08:00 amSSW 1.9 3.9----29.99+0.05 74.5 74.7 73.2---
2024-07-23 07:50 am SW 1.9 3.9 3.0 65.1SSE29.99- 74.5 74.7 73.2---
2024-07-23 07:40 am SW 3.9 5.8----29.99- 74.5 74.5 73.2---
2024-07-23 07:30 am SW 3.9 5.8----29.98- 74.5 74.5 73.2---
2024-07-23 07:20 amWSW 3.9 5.8 2.6 65.0 S29.98- 74.5 74.5 73.2---
2024-07-23 07:10 amWSW 3.9 3.9 2.6-5.0 S29.98- 74.5 74.5 73.0---
2024-07-23 07:00 amWSW 3.9 5.8----29.98+0.04 74.5 74.5 72.9---
2024-07-23 06:50 amWSW 5.8 7.8 3.0 65.0SSE29.97- 74.5 74.5 72.9---
2024-07-23 06:40 amWSW 5.8 7.8----29.97- 74.3 74.5 72.9---
2024-07-23 06:30 am W 3.9 5.8----29.96- 74.3 74.5 73.2---
2024-07-23 06:20 am W 3.9 5.8 3.0 65.0SSE29.96- 74.1 74.5 73.2---
2024-07-23 06:10 am W 3.9 3.9 3.0-5.0SSE29.96- 74.1 74.5 73.4---
2024-07-23 06:00 am W 3.9 3.9----29.96+0.00 74.1 74.5 73.4---
2024-07-23 05:50 am W 3.9 3.9 2.6 64.8SSE29.96- 73.9 74.5 73.4---
2024-07-23 05:40 am W 3.9 3.9----29.95- 74.1 74.5 73.8---
2024-07-23 05:30 am W 3.9 3.9----29.95- 73.9 74.5 73.6---
2024-07-23 05:20 amWSW 1.9 3.9 2.6 64.6SSE29.95- 73.8 74.5 73.2---
2024-07-23 05:10 am SW 1.9 1.9 2.6-4.6SSE29.94- 73.8 74.5 73.2---
2024-07-23 05:00 amSSW 1.9 3.9----29.94-0.02 73.8 74.5 73.2---
2024-07-23 04:50 am SW 3.9 5.8 3.0 54.7SSE29.94- 73.8 74.5 73.2---
2024-07-23 04:40 am SW 3.9 5.8 3.0-4.7SSE29.94- 73.9 74.5 73.2---
2024-07-23 04:30 am SW 3.9 3.9----29.94- 73.9 74.5 73.2---
2024-07-23 04:20 amWSW 3.9 3.9 3.0 64.5SSE29.94- 73.8- 73.0---
2024-07-23 04:10 am W 1.9 3.9 3.0-4.5SSE29.94- 73.8 74.5 73.0---
2024-07-23 04:00 am W 1.9 3.9----29.94-0.03 73.8 74.5 73.2---
2024-07-23 03:50 amWSW 1.9 1.9 3.0 64.7 S29.94- 73.8 74.5 73.2---
2024-07-23 03:40 am- 0.0 1.9 3.0-4.7 S29.95- 73.6 74.5 73.0---
2024-07-23 03:30 amSSW 1.9 3.9----29.95- 73.6 74.5 73.0---
2024-07-23 03:20 amSSW 1.9 3.9 3.0 64.6SSE29.96- 73.6 74.5 73.0---
2024-07-23 03:10 am-------29.96-------
2024-07-23 03:00 am-------29.96-0.01------
2024-07-23 02:50 am--- 3.3-4.6SSE29.96-------
2024-07-23 02:40 am-------29.96-------
2024-07-23 02:30 am-------29.96-------
2024-07-23 02:20 am SE 7.8 9.7 3.0-4.3SSE29.97-------
2024-07-23 02:10 am SE 7.8 11.7 3.0-4.3SSE29.96- 73.2 74.5 72.7---
2024-07-23 02:00 am SE 9.7 13.6----29.96-0.04 73.0 74.5 72.5---
2024-07-23 01:50 am SE 9.7 11.7 3.3 54.5SSE29.96- 73.0 74.5 72.5---
2024-07-23 01:40 am SE 9.7 11.7----29.96- 73.0 74.3 72.5---
2024-07-23 01:30 am SE 9.7 13.6----29.97- 73.0 74.3 72.3---
2024-07-23 01:20 amESE 13.6 15.5 3.3 54.4 S29.96- 72.9 74.3 72.1---
2024-07-23 01:10 amESE 13.6 15.5 3.3-4.4 S29.96- 72.9 74.5 72.0---
2024-07-23 01:00 amESE 13.6 17.5----29.96-0.05 73.0 74.5 72.0---
2024-07-23 12:50 amESE 11.7 15.5 3.3 64.3SSE29.97- 73.4 74.5 72.1---
2024-07-23 12:40 am SE 15.5 17.5 3.3-4.3SSE29.97- 73.2 74.5 71.8---
2024-07-23 12:30 am SE 15.5 19.4----29.97- 73.4 74.7 71.8---
2024-07-23 12:20 am--- 3.3-4.3SSE29.97-------
2024-07-23 12:10 am-------29.97-------
2024-07-23 12:00 am-------29.97-0.04------
2024-07-22 11:50 pm--- 3.3-4.4SSE29.98-------
2024-07-22 11:40 pm-------29.98-------
2024-07-22 11:30 pm-------29.98-------
2024-07-22 11:20 pm--- 3.3-4.4SSE29.99-------
2024-07-22 11:10 pm-------29.99-------
2024-07-22 11:00 pm-------30.00-0.01------
2024-07-22 10:50 pm--- 3.0-4.2SSE29.99-------
2024-07-22 10:40 pm-------29.99-------
2024-07-22 10:30 pm-------30.00-------
2024-07-22 10:20 pm--- 2.6-4.2 SE30.00-------
2024-07-22 10:10 pm-------30.01-------
2024-07-22 10:00 pm-------30.01+0.00------
2024-07-22 09:50 pm--- 2.3-4.0 SE30.01-------
2024-07-22 09:40 pm-------30.01-------
2024-07-22 09:30 pm-------30.01-------
2024-07-22 09:20 pm--- 2.3-4.5 SE30.01-------
2024-07-22 09:10 pm-------30.01-------
2024-07-22 09:00 pm-------30.01-------
2024-07-22 08:50 pm--- 2.0-5.1 SE30.01-------
2024-07-22 08:40 pm-------30.01-------
2024-07-22 08:30 pm-------30.01-------
2024-07-22 08:20 pm--- 2.0-5.3 SE30.01-------
2024-07-22 08:10 pm SE 7.8 9.7 2.0-5.3 SE30.02- 75.9 75.4 73.9---
2024-07-22 08:00 pm SE 7.8 9.7----30.01-0.04 76.1 75.4 73.9---
2024-07-22 07:50 pm SE 7.8 9.7 2.0 95.1 SE30.01- 76.1 75.4 73.9---
2024-07-22 07:40 pm SE 7.8 9.7----30.01- 75.9 75.4 73.8---
2024-07-22 07:10 pm SE 7.8 9.7 2.0-5.2 SE30.01- 75.9 75.4 73.8---
2024-07-22 07:00 pm SE 7.8 9.7----30.01-0.05 75.9 75.4 73.6---
2024-07-22 06:50 pm SE 7.8 9.7 2.0 105.3 SE30.01- 76.1 75.4 73.6---
2024-07-22 06:40 pm SE 7.8 9.7----30.01- 76.1 75.4 73.6---
2024-07-22 06:30 pm SE 7.8 9.7----30.01- 75.9 75.4 73.8---
2024-07-22 06:20 pm SE 7.8 9.7 2.0 105.1ESE30.02- 75.9 75.4 73.6---
2024-07-22 06:10 pm SE 7.8 7.8 2.0-5.1ESE30.02- 75.9 75.6 73.6---
2024-07-22 06:00 pm SE 7.8 9.7----30.03-0.04 76.1 75.6 73.6---
2024-07-22 05:50 pm SE 7.8 9.7 2.0 105.2 SE30.03- 75.9 75.6 73.6---
2024-07-22 05:40 pm SE 7.8 9.7----30.03- 76.1 75.6 73.6---
2024-07-22 05:30 pm SE 7.8 9.7----30.03- 75.9 75.6 73.6---
2024-07-22 05:20 pm SE 7.8 9.7 2.0 95.4 SE30.03- 76.1 75.6 73.6---
2024-07-22 05:10 pm SE 7.8 9.7 2.0-5.4 SE30.04- 76.1 75.6 73.6---
2024-07-22 05:00 pm SE 7.8 9.7----30.04-0.04 75.9 75.6 73.4---
2024-07-22 04:50 pm SE 7.8 9.7 2.0 65.1 S30.04- 75.7 75.6 73.6---
2024-07-22 04:40 pm SE 7.8 9.7----30.04- 75.7 75.7 73.6---
2024-07-22 04:30 pm SE 7.8 9.7----30.05- 75.7 75.7 73.6---
2024-07-22 04:20 pm SE 7.8 9.7 2.3 105.3 SE30.05- 75.7 75.6 73.6---
2024-07-22 04:10 pm SE 7.8 9.7 2.3-5.3 SE30.05- 75.7 75.7 73.6---
2024-07-22 04:00 pm SE 7.8 9.7----30.05-0.04 75.6 75.7 73.8---
2024-07-22 03:50 pm SE 7.8 9.7 2.0 95.1 SE30.05- 75.6 75.7 73.8---
2024-07-22 03:40 pm SE 7.8 9.7 2.0-5.1 SE30.05- 75.6 75.9 73.8---
2024-07-22 03:30 pm SE 7.8 9.7----30.06- 75.6 75.7 73.8---
2024-07-22 03:20 pm SE 7.8 9.7 2.3 95.2 SE30.06- 75.4 75.7 73.6---
2024-07-22 03:10 pm SE 7.8 7.8 2.3-5.2 SE30.06- 75.4 75.7 73.8---
2024-07-22 03:00 pm SE 7.8 7.8----30.06-0.04 75.4 75.7 73.6---
2024-07-22 02:50 pm SE 5.8 7.8 2.3 65.3SSE30.07- 75.4 75.7 73.8---
2024-07-22 02:40 pm SE 5.8 7.8----30.07- 75.4 75.6 73.6---
2024-07-22 02:30 pmSSE 7.8 7.8----30.07- 75.4 75.6 73.6---
2024-07-22 02:20 pmSSE 5.8 7.8 2.3 95.3 SE30.07- 75.4 75.4 73.4---
2024-07-22 02:10 pmSSE 5.8 7.8 2.3-5.3 SE30.07- 75.4 75.4 73.4---
2024-07-22 02:00 pmSSE 5.8 7.8----30.08-0.02 75.6 75.4 73.6---
2024-07-22 01:50 pm S 5.8 7.8 2.3 105.4 SE30.08- 75.6 75.4 73.6---
2024-07-22 01:40 pm S 5.8 7.8----30.08- 75.6 75.6 73.6---
2024-07-22 01:30 pm S 5.8 7.8----30.09- 75.4 75.2 73.4---
2024-07-22 01:20 pm S 5.8 7.8 2.3 105.5 SE30.09- 75.4 75.2 73.4---
2024-07-22 01:10 pmSSE 5.8 7.8 2.3-5.5 SE30.09- 75.4 75.2 73.4---
2024-07-22 01:00 pm S 5.8 7.8----30.11+0.00 75.2 75.0 73.4---
2024-07-22 12:50 pm--- 2.6-5.7SSE30.09-------
2024-07-22 12:40 pm-------30.09-------
2024-07-22 12:30 pm-------30.10-------
2024-07-22 12:20 pm--- 2.6-5.5SSE30.10-------
2024-07-22 12:10 pm-------30.10-------
2024-07-22 12:00 pm-------30.10-------
2024-07-22 11:50 am--- 2.6-5.5SSE30.10-------
2024-07-22 11:40 am-------30.10-------
2024-07-22 11:30 am-------30.10-------
2024-07-22 11:20 am--- 2.6-5.5 S30.10-------
2024-07-22 11:10 am-------30.10-------
2024-07-22 11:00 am-------30.10-------
2024-07-22 10:50 am--- 2.6-5.3 S30.09-------

Detailed Wave Summary
for 44025 as of (10:40 am EDT)
1440 GMT on 07/23/2024:

These wave data are displayed in rounded times.

     

Click on the graph icon in the table below to see a time series plot of the last five days of that observation.

5-day plot - Significant Wave Height Significant Wave Height (WVHT): 3.6 ft
5-day plot - Swell Height Swell Height (SwH): 1.6 ft
5-day plot - Swell Period Swell Period (SwP): 10.0 sec
5-day plot - Swell Direction Swell Direction (SwD):ESE
5-day plot - Wind Wave Height Wind Wave Height (WWH): 3.0 ft
5-day plot - Wind Wave Period Wind Wave Period (WWP): 5.6 sec
5-day plot - Wind Wave Direction Wind Wave Direction (WWD): S
5-day plot - Wave Steepness Wave Steepness (STEEPNESS): STEEP
5-day plot - Average Wave Period Average Wave Period (APD): 5.0 sec
Previous observations
TIME
(EDT)
5-day plot - Wave Height
WVHT
ft
5-day plot - Swell Height
SwH
ft
5-day plot - Swell Period
SwP
sec
5-day plot - Swell Direction
SwD
 
5-day plot - Wind Wave Height
WWH
ft
5-day plot - Wind Wave Period
WWP
sec
5-day plot - Wind Wave Direction
WWD
 
5-day plot - Wave Steepness
STEEPNESS
 
5-day plot - Average Wave Period
APD
sec
2024-07-23 10:10 am 3.3 2.6 6.2SSE 2.0 3.8 S STEEP 5.1
2024-07-23 09:40 am 3.3 3.0 6.2SSE 1.6 3.8 SE STEEP 5.4
2024-07-23 09:10 am 3.3 3.3 5.9SSE 1.3 4.0 SSE STEEP 5.1
2024-07-23 08:40 am 3.3 3.3 5.9SSE 1.0 3.6 SSE STEEP 5.2
2024-07-23 08:10 am 3.3 3.0 5.9SSE 1.0 4.0 SSE STEEP 5.2
2024-07-23 07:40 am 3.0 2.6 5.6SSE 1.0 3.7 SSE STEEP 5.1
2024-07-23 07:10 am 2.6 2.6 5.6 S 1.0 3.7 SE STEEP 5.0
2024-07-23 06:40 am 3.0 2.6 5.6SSE 1.0 3.6 SE STEEP 5.0
2024-07-23 06:10 am 3.0 2.6 5.6SSE 1.0 3.7 SSE STEEP 5.0
2024-07-23 05:40 am 2.6 2.3 5.6SSE 1.3 4.0 SE N/A 4.8
2024-07-23 05:10 am 2.6 2.3 5.9SSE 1.3 3.8 SE STEEP 4.6
2024-07-23 04:40 am 3.0 2.6 5.3SSE 1.3 3.8 SE STEEP 4.7
2024-07-23 04:10 am 3.0 2.6 5.6SSE 1.3 3.4 SE STEEP 4.5
2024-07-23 03:40 am 3.0 3.0 5.6 S 1.3 3.8 SSE STEEP 4.7
2024-07-23 03:10 am 3.0 2.6 5.6SSE 1.3 3.6 SSE STEEP 4.6
2024-07-23 02:40 am 3.3 3.0 5.3SSE 1.6 4.0 SSEVERY_STEEP 4.6
2024-07-23 02:10 am 3.0 2.6 5.3SSE 1.6 3.8 SSE STEEP 4.3
2024-07-23 01:40 am 3.3 2.6 5.3SSE 2.3 4.5 SSEVERY_STEEP 4.5
2024-07-23 01:10 am 3.3 1.3 9.1ESE 3.0 5.3 S STEEP 4.4
2024-07-23 12:40 am 3.3 1.3 10.0 SE 3.0 5.6 SSE STEEP 4.3
2024-07-23 12:10 am 3.3------VERY_STEEP 4.3
2024-07-22 11:40 pm 3.3------VERY_STEEP 4.4
2024-07-22 11:10 pm 3.3------VERY_STEEP 4.4
2024-07-22 10:40 pm 3.0------VERY_STEEP 4.2
2024-07-22 10:10 pm 2.6------ N/A 4.2
2024-07-22 09:40 pm 2.3------ N/A 4.0
2024-07-22 09:10 pm 2.3 2.0 10.0 SE 1.0 3.8 SSE N/A 4.5
2024-07-22 08:40 pm 2.0 2.0 8.3 SE 1.0 3.8 SSE N/A 5.1
2024-07-22 08:10 pm 2.0 2.0 9.1 SE 0.7 3.7 S N/A 5.3
2024-07-22 07:40 pm 2.0 1.6 9.1 SE 0.7 3.4 S N/A 5.1
2024-07-22 07:10 pm 2.0 1.6 7.7 SE 0.7 3.8 S N/A 5.2
2024-07-22 06:40 pm 2.0 2.0 10.0 SE 0.7 3.7 S N/A 5.3
2024-07-22 06:10 pm 2.0 1.6 10.0ESE 0.7 4.0 SSE N/A 5.1
2024-07-22 05:40 pm 2.0 1.6 10.0 SE 0.7 3.7 SSE N/A 5.2
2024-07-22 05:10 pm 2.0 2.0 9.1 SE 0.7 3.6 S N/A 5.4
2024-07-22 04:40 pm 2.0 2.0 5.6 S 0.7 4.0 S N/A 5.1
2024-07-22 04:10 pm 2.3 2.0 10.0 SE 0.7 3.8 SSE N/A 5.3
2024-07-22 03:40 pm 2.0 2.0 9.1 SE 0.7 3.8 SSE N/A 5.1
2024-07-22 03:10 pm 2.3 2.0 9.1 SE 1.0 3.6 S N/A 5.2
2024-07-22 02:40 pm 2.3 2.3 5.9SSE 0.7 3.7 SSE N/A 5.3
2024-07-22 02:10 pm 2.3 2.3 9.1 SE 0.7 3.4 S N/A 5.3
2024-07-22 01:40 pm 2.3 2.3 10.0 SE 1.0 3.3 S N/A 5.4
2024-07-22 01:10 pm 2.3------ N/A 5.5
2024-07-22 12:40 pm 2.6------ N/A 5.7
2024-07-22 12:10 pm 2.6------ N/A 5.5
2024-07-22 11:40 am 2.6------ STEEP 5.5
2024-07-22 11:10 am 2.6------ STEEP 5.5

Plot of wave energy versus frequency (and period)